Regional Weather Roundup
Issued by NWS Wilmington, NC

Home | Current Version | Previous Version | Text Only | Print | Product List | Glossary On
Versions: 1 2 3 4 5 6 7 8 9 10 11 12 13 14 15 16 17 18 19 20 21 22 23 24 25 26 27 28 29 30 31 32 33 34 35 36 37 38 39 40 41 42 43 44 45 46 47 48 49 50
000
ASUS42 KILM 272313
RWRILM
RWRILM
REGIONAL HOURLY WEATHER ROUNDUP
NATIONAL WEATHER SERVICE WILMINGTON NC
700 PM EDT THU APR 27 2017

NOTE: "FAIR" INDICATES FEW OR NO CLOUDS BELOW 12,000 FEET WITH NO
SIGNIFICANT WEATHER AND/OR OBSTRUCTIONS TO VISIBILITY.

...............WFO WILMINGTON COUNTY WARNING AREA...............

......COASTAL NC AND SC COUNTIES......

CITY           SKY/WX    TMP DP  RH WIND       PRES   REMARKS
WILMINGTON     CLOUDY    76  64  66 S12       29.92F
N MYRTLE BEACH PTSUNNY   72  69  90 S9        29.90F
MYRTLE BEACH   SUNNY     73  68  83 S12       29.92F

......INLAND NC AND SC COUNTIES.......

CITY           SKY/WX    TMP DP  RH WIND       PRES   REMARKS
LUMBERTON      CLOUDY    77  67  71 S6        29.88F
ELIZABETHTOWN  CLOUDY    77  64  65 S8        29.90F
WHITEVILLE     CLOUDY    76  65  67 SE7       29.89F
FLORENCE       PTSUNNY   78  66  66 S6        29.87S
DARLINGTON     CLOUDY    78  67  68 S5        29.90R
KINGSTREE      FAIR      77  61  57 SE10      29.85F
HARTSVILLE     CLOUDY    75  64  69 SE5       29.88R
BENNETTSVILLE  PTSUNNY   79  68  69 S6        29.88R
CONWAY         FAIR      73  68  83 S7        29.89F
GEORGETOWN     FAIR      75  70  83 S9        29.91F
MARION         FAIR      77  64  65 S8        29.87F

....................REST OF NORTH CAROLINA......................

.........EASTERN NC.........

CITY           SKY/WX    TMP DP  RH WIND       PRES   REMARKS
CAPE HATTERAS  PTCLDY    75  68  78 SW7       29.94R HAZE
JACKSONVILLE   CLOUDY    77  63  61 S14       29.92R
MOREHEAD CITY  PTCLDY    73  67  81 SW13      29.94S
KENANSVILLE    CLOUDY    77  64  65 S5        29.90S
NEW BERN       PTCLDY    76  65  68 S9        29.92S
ELIZABETH CITY PTCLDY    78  61  55 S13       29.88R

.........CENTRAL NC.........

CITY           SKY/WX    TMP DP  RH WIND       PRES   REMARKS
RALEIGH DURHAM CLOUDY    76  59  55 SW9       29.87S
ROCKY MOUNT    MOSUNNY   77  61  57 S10       29.87R
ROANOKE RAPIDS NOT AVBL
FAYETTEVILLE   PTSUNNY   79  65  62 S7        29.87F
HOFFMAN        CLOUDY    77  65  67 S9        29.87S

.........WESTERN NC.........

CITY           SKY/WX    TMP DP  RH WIND       PRES   REMARKS
CHARLOTTE      CLOUDY    74  65  73 S9        29.85F
GREENSBORO     CLOUDY    72  60  66 S14       29.85S
HICKORY        NOT AVBL
BOONE          NOT AVBL
ASHEVILLE      NOT AVBL

.....................REST OF SOUTH CAROLINA.....................

.........EASTERN SC.........

CITY           SKY/WX    TMP DP  RH WIND       PRES   REMARKS
CHARLESTON     CLOUDY    78  63  59 S17G24    29.88F
BEAUFORT MCAS  CLOUDY    80  65  59 S7        29.87F
HILTON HEAD    SUNNY     77  68  73 S10G18    29.89F

.........CENTRAL SC.........

CITY           SKY/WX    TMP DP  RH WIND       PRES   REMARKS
COLUMBIA       CLOUDY    81  67  62 CALM      29.84S
ORANGEBURG     CLOUDY    78  64  61 S13G23    29.82F
SUMTER SHAW    CLOUDY    78  65  62 S7        29.84R

.........WESTERN SC.........

CITY           SKY/WX    TMP DP  RH WIND       PRES   REMARKS
GREENVILLE     NOT AVBL
ROCK HILL      PTSUNNY   73  67  81 S5        29.86S
ANDERSON       CLOUDY    74  67  78 S9        29.83F
CLEMSON        NOT AVBL
GREENWOOD      CLOUDY    75  66  73 S7        29.85S


...................COASTAL AND OFFSHORE REPORTS..................

................LOCAL PIERS AND NC RESERVE................


STATION/POSITION TIME  SKY/WX   TEMP    WIND        PRES    VSBY
                                AIR SEA DIR/SP/G
                 (UTC)          (F)     (DEG/KT/KT) (MB)    (MI)
JOHNY MRCER PIER 2248            72 73  200/ 11/ 11 1012.6S
NC RESRV MASNBRO 2145            77     250/  8     1014.0
OCEAN CREST PIER NOT AVBL
SPRINGMAID  PIER 2248                               1012.2F


................COASTAL AND OFFSHORE BUOYS................


STATION/POSITION TIME  SKY/WX   TEMP    WIND        PRES    VSBY
                                AIR SEA DIR/SP/G
                 (UTC)          (F)     (DEG/KT/KT) (MB)    (MI)
DIMNDSHOAL 41025 2250            78 77  220/ 23/ 27 1013.4F
WVE H/P(F/S)=  5/ 8 SWL H/P/D(F/S/D)=  3/120/ 8

CAPE LOOKOUT     2300            73     210/  9/ 11 1013.6R
ONSLOW BAY 41036 NOT AVBL
ONSLOW BAY 41064 2208            74     220/ 10/ 14 1014.0R
ONSLOW BAY 41159 2243               72                N/A
WVE H/P(F/S)=  5/ 8 SWL H/P/D(F/S/D)=  2/100/11

MASNBO INL 41110 2229               72                N/A
WVE H/P(F/S)=  3/ 9

WILM HARBR 41108 2247               72                N/A
WVE H/P(F/S)=  4/ 6

27SE WRITB 41037 2208            74 73  190/ 10/ 14 1013.3R
FRYING PAN 41013 2250            75 74  200/ 12/ 14 1013.8R
WVE H/P(F/S)=  4/ 6 SWL H/P/D(F/S/D)=  3/120/ 8

SUNST NRSH 41024 2208            72 72  200/  6/  8 1013.4R
CAPRS NRSH 41029 2208            76 74  190/ 10/ 16 1012.9S
EDISTO     41004 2250            75 74  180/ 10/ 12 1013.1F
WVE H/P(F/S)=  4/ 6 SWL H/P/D(F/S/D)=  3/170/ 6



..........OFFSHORE BUOYS BEYOND 100 NM OFFSHORE...........
.....IN A TRIANGLE---HAT TO BERMUDA TO BAHAMAS TO HAT.....


STATION/POSITION TIME  SKY/WX   TEMP    WIND        PRES    VSBY
                                AIR SEA DIR/SP/G
                 (UTC)          (F)     (DEG/KT/KT) (MB)    (MI)
150E HAT   41001 2300            73 72  190/ 14/ 17 1016.8
W BERMUDA  41048 2250            72 72  230/  2/  4 1020.0S
WVE H/P(F/S)=  6/ 7 SWL H/P/D(F/S/D)=  5/150/ 7

ATLANTIC S 41049 2250            73 73   90/ 10/ 12 1022.4R
WVE H/P(F/S)=  5/ 7 SWL H/P/D(F/S/D)=  5/ 70/ 7

E BAHAMAS  41046 2250            77 78  110/ 12/ 14 1017.9R
WVE H/P(F/S)=  4/12 SWL H/P/D(F/S/D)=  3/ 80/12

NE BAHAMAS 41047 2250            76 77  140/ 10/ 12 1019.3R
WVE H/P(F/S)=  5/ 7 SWL H/P/D(F/S/D)=  5/140/ 7

120E CANVRL41010 2250            78 78  150/ 10/ 14 1014.5R
WVE H/P(F/S)=  5/ 8 SWL H/P/D(F/S/D)=  3/120/ 8


END



USA.gov is the U.S. government's official web portal to all federal, state and local government web resources and services.